Theta_e
314 314 315 316 316 315 315 314 314 314 313 311 312 312 313 314 315 314 313 313 315 316 316 315 316 315 315 315 317 317 316 316 316 317 317 315 313 316 314 315 315 313 313
313 316 316 317 317 316 315 315 314 313 312 312 312 312 312 313 314 314 314 314 313 314 314 314 315 315 315 316 316 316 316 316 315 317 316 315 316 317 316 317 315 316 315
314 316 316 316 316 316 315 315 315 313 312 312 311 311 312 312 313 315 314 314 314 314 313 314 314 315 316 316 316 316 316 316 315 316 315 315 317 317 316 315 315 316 315
315 316 316 315 315 314 313 314 314 314 314 313 312 311 312 312 312 315 315 314 313 314 314 315 315 315 315 316 315 317 315 316 316 314 314 314 315 316 315 315 315 315 316
316 316 316 316 314 314 314 316 316 314 314 314 314 314 312 310 310 312 315 314 314 314 311 311 311 310 311 311 311 312 312 316 316 317 317 316 316 316 316 316 316 315 314
314 315 315 314 314 314 314 315 315 316 315 314 313 313 311 308 308 310 313 316 316 315 316 314 314 315 316 316 315 314 314 311 313 316 317 317 317 317 317 316 316 316 316
315 315 315 313 314 313 313 314 316 315 315 315 314 314 312 308 308 308 311 315 315 315 315 314 315 315 311 311 311 314 314 315 314 313 315 316 317 316 313 312 313 314 316
316 315 314 313 313 314 312 314 315 316 315 315 315 314 314 310 309 309 309 314 315 314 314 314 314 314 313 309 309 314 315 314 315 314 313 311 308 307 306 306 309 312 314
316 316 314 314 314 315 316 315 313 314 316 314 314 313 314 315 310 308 308 310 311 314 315 314 313 314 311 309 312 314 313 313 313 311 312 312 312 312 307 306 311 309 311
316 316 314 313 314 315 317 317 318 315 314 315 315 313 314 312 314 310 308 308 312 311 314 314 310 308 307 307 307 312 310 310 306 311 311 314 313 312 310 308 310 308 309
315 315 314 314 314 313 315 318 318 317 314 314 313 313 314 314 315 312 308 308 309 308 315 310 307 307 307 307 306 308 304 304 306 309 311 313 314 313 314 311 309 307 308
315 316 315 314 314 314 313 316 316 317 317 315 315 312 312 313 314 312 308 308 307 307 310 312 309 307 306 306 308 307 304 306 308 310 311 310 309 309 311 309 308 307 307
316 315 316 315 316 314 314 315 314 314 316 316 316 313 311 315 316 312 307 306 306 307 308 310 308 308 308 308 309 308 307 308 309 307 309 309 309 309 308 308 309 309 309
316 315 316 316 316 315 315 315 313 314 315 314 314 312 310 308 308 309 308 308 308 306 308 313 311 312 311 310 310 309 308 309 308 307 308 307 308 308 309 310 308 307 307
314 316 317 318 317 316 315 316 315 313 314 313 311 311 310 311 309 308 306 305 306 305 304 306 310 311 312 313 312 311 312 310 308 307 306 305 307 307 307 307 307 307 307
316 315 317 318 317 315 315 316 315 314 313 313 312 309 309 308 307 305 303 303 303 302 302 303 306 308 311 312 312 310 309 307 307 305 304 305 307 307 307 306 306 307 306
314 315 315 317 317 316 317 315 317 315 314 313 313 311 309 308 307 306 304 303 303 302 302 304 306 307 309 311 311 309 308 306 305 304 305 305 306 306 306 307 307 307 306
315 315 315 316 316 317 316 314 315 314 315 317 314 314 309 308 307 306 305 303 302 303 304 305 307 309 309 310 310 308 307 305 304 304 304 304 306 306 306 306 306 307 305
314 314 316 315 315 316 316 316 315 315 315 314 315 315 311 308 308 306 305 303 304 306 308 309 308 308 308 308 308 307 306 305 304 302 302 304 305 305 305 305 306 305 304
311 311 312 315 315 315 315 315 316 315 315 315 315 314 312 309 308 307 306 304 304 306 308 309 309 308 307 307 306 306 305 304 303 303 304 304 304 304 305 305 304 304 304
311 311 310 313 315 315 315 315 315 313 314 313 315 315 313 311 309 310 309 308 307 309 311 309 308 307 307 307 306 305 304 303 302 302 302 302 303 304 304 304 303 303 304
307 307 308 311 311 312 315 314 314 314 314 315 314 314 313 312 312 312 311 311 311 310 309 308 308 307 306 305 305 304 303 303 302 301 301 301 301 302 303 303 303 303 303
306 308 309 311 312 313 312 314 316 315 313 314 314 314 311 312 312 312 313 312 312 311 310 310 308 308 307 305 305 304 303 302 301 300 300 300 300 301 301 302 302 302 302
306 308 308 309 309 311 313 313 313 315 314 314 314 315 313 313 313 313 313 313 314 311 311 311 310 309 309 307 305 304 303 302 301 299 298 298 299 300 300 301 302 302 302
306 308 309 308 308 310 311 312 313 313 314 315 313 314 314 314 313 313 314 313 313 314 313 312 311 310 310 309 308 306 303 302 300 298 297 296 296 297 299 300 301 302 302
307 308 308 309 308 308 307 307 311 311 310 315 314 314 315 314 314 314 313 313 314 313 313 313 312 312 310 310 308 307 305 303 301 300 297 295 296 296 297 299 300 301 302
Wind_Speed
11 9 12 10 10 8 9 9 10 9 10 8 10 10 11 9 11 12 9 11 10 10 10 11 10 11 12 10 10 4 9 4 6 13 12 8 8 5 4 5 6 7 10
12 10 12 11 10 8 7 9 10 10 8 9 5 9 10 9 12 11 12 8 11 9 8 11 11 10 10 17 15 15 12 12 12 16 11 7 7 6 6 6 8 11 10
11 12 12 12 9 8 8 9 9 10 8 9 8 7 8 12 11 13 12 11 10 11 11 12 9 11 13 12 13 9 8 8 5 6 6 6 6 6 7 7 7 7 9
10 11 9 11 4 7 9 8 7 8 7 8 6 4 6 7 7 8 9 4 8 9 11 11 10 10 10 15 13 12 9 11 6 2 2 6 4 6 3 4 8 9 14
6 5 6 7 8 6 4 4 6 6 2 7 7 7 11 9 7 9 12 15 11 12 11 13 15 14 14 15 12 11 10 8 11 9 11 7 4 5 5 8 5 9 1
7 10 5 3 5 6 11 10 4 5 6 3 5 8 9 7 7 7 9 9 7 7 9 9 6 10 9 10 9 10 8 8 7 7 7 9 8 5 6 8 10 8 4
11 11 11 6 8 4 8 7 8 8 5 3 6 5 6 7 7 7 8 6 3 2 6 9 7 6 7 8 7 9 14 4 2 5 4 6 4 4 5 7 9 9 12
13 11 5 7 11 11 6 4 5 6 5 2 2 4 3 6 7 7 8 6 4 3 2 3 4 3 5 8 8 11 10 4 2 3 3 4 4 5 5 7 10 16 18
14 9 4 5 6 6 8 8 8 7 7 5 4 2 1 4 6 7 9 8 13 8 6 7 2 1 4 4 6 10 11 8 6 2 5 5 5 6 4 3 9 14 15
14 8 6 7 9 12 4 7 6 9 13 5 9 6 6 5 7 8 9 10 15 10 11 10 4 3 4 4 5 5 6 9 9 7 11 13 11 7 2 2 4 8 14
16 12 12 9 10 11 9 6 7 8 8 7 9 8 10 9 10 8 8 8 8 11 3 6 5 3 2 4 4 3 7 9 9 11 16 19 12 12 9 3 2 3 7
14 17 11 12 11 12 11 13 10 8 12 18 15 13 15 18 14 10 8 9 9 9 7 5 2 2 4 5 4 7 6 7 10 16 12 5 3 5 5 3 8 8 8
14 17 17 13 13 14 16 16 14 15 17 19 11 21 12 16 17 13 6 8 10 13 11 9 11 11 9 9 10 6 4 8 6 11 13 10 7 5 9 11 9 10 15
16 17 16 13 15 16 18 12 11 16 17 16 11 2 2 3 8 11 8 6 11 11 10 9 15 13 14 15 14 12 13 9 4 7 9 10 10 11 12 9 1 7 10
17 19 15 15 15 14 17 17 15 17 11 13 11 8 8 3 5 8 5 7 9 6 10 11 13 19 22 21 20 18 17 8 5 6 5 10 12 11 8 4 5 9 7
17 17 16 15 14 12 17 18 15 13 12 12 14 14 9 8 9 8 8 8 8 10 11 12 16 20 18 11 7 3 5 5 1 3 8 13 9 9 9 9 11 14 4
20 20 16 17 15 18 13 13 17 8 16 19 17 19 18 18 15 12 10 11 11 12 15 16 18 21 18 11 5 4 4 3 4 8 9 9 10 8 9 11 13 10 2
16 18 17 17 20 19 14 14 21 15 20 17 11 23 24 23 22 18 14 13 14 15 21 21 22 19 12 11 4 4 4 4 6 8 6 10 8 8 9 12 12 3 5
15 24 24 21 21 21 18 16 18 20 13 21 15 15 25 21 21 21 19 19 14 16 18 23 22 11 8 4 3 3 2 4 7 9 10 10 9 8 10 12 11 5 2
18 19 30 21 18 22 22 21 17 15 13 18 24 16 20 23 20 25 25 22 18 19 22 10 7 7 8 6 6 2 3 8 12 12 12 9 7 10 10 13 6 8 5
16 16 19 19 16 21 18 18 19 17 22 30 25 14 18 21 26 25 25 24 24 24 17 8 6 9 11 13 13 8 10 9 8 8 8 9 10 9 9 11 5 9 9
23 20 18 17 19 21 22 22 22 13 19 23 16 22 18 17 18 14 14 15 20 14 9 10 8 10 12 11 6 1 2 7 8 8 7 8 10 10 10 5 6 8 7
26 17 14 17 17 19 19 22 22 22 19 30 18 22 18 13 20 19 15 12 11 10 10 9 10 9 9 9 8 8 7 9 4 3 5 8 10 10 7 6 6 10 9
25 21 17 17 21 23 20 18 23 23 21 24 22 23 16 14 17 23 20 19 17 12 16 12 13 12 9 7 7 9 11 12 10 7 6 8 9 9 9 8 11 10 10
23 20 18 15 17 21 21 19 19 20 22 27 29 32 18 19 21 14 16 17 26 14 12 11 15 16 16 15 12 11 13 12 15 11 10 10 9 10 9 10 11 11 11
23 18 21 19 18 18 23 27 24 24 20 27 25 25 18 23 17 13 13 15 15 13 20 15 11 17 15 14 15 16 17 15 14 12 11 9 9 10 11 13 13 10 10
Wind_Direction
338 346 352 346 334 322 343 351 350 7 9 4 9 14 13 8 10 18 20 35 33 34 38 54 52 64 70 62 74 151 207 208 136 134 131 126 135 148 152 177 229 246 253
3 338 3 5 12 1 0 356 7 22 4 342 33 13 8 1 1 29 45 46 39 34 47 42 48 39 46 58 61 57 81 70 105 113 139 140 176 201 201 251 229 245 259
343 345 358 359 27 10 24 26 34 25 15 7 20 9 1 19 35 40 48 59 58 52 50 52 47 55 59 57 67 67 77 88 88 114 141 195 192 207 230 273 277 268 256
330 336 349 5 10 26 25 26 27 22 29 23 33 6 333 38 24 24 7 44 65 87 74 72 66 72 59 48 51 55 47 30 64 105 205 191 216 236 274 301 275 299 256
343 339 327 354 12 356 346 354 4 351 19 31 44 28 40 48 45 31 27 37 61 75 83 76 73 73 66 56 53 52 48 43 36 24 37 54 53 79 343 345 333 18 16
335 310 320 307 344 336 337 358 7 351 357 23 64 72 52 53 47 27 23 32 47 60 67 51 72 60 33 22 23 19 15 31 37 33 30 27 20 13 1 354 345 356 327
307 311 303 323 336 320 332 329 345 349 344 10 48 69 57 33 32 23 20 26 2 104 82 69 69 61 45 33 3 357 350 290 1 24 33 359 356 0 341 327 321 312 293
291 297 319 347 331 355 318 297 333 334 336 287 86 40 44 25 16 8 360 349 331 347 28 78 63 45 7 3 7 1 11 14 286 306 306 292 308 317 310 309 307 306 298
289 292 213 318 319 337 356 328 330 321 308 276 277 278 174 317 342 338 341 334 319 276 287 260 108 45 355 8 14 3 3 28 5 260 313 294 308 327 312 328 1 351 346
280 274 206 301 308 301 313 323 308 298 297 281 258 253 250 259 274 303 319 330 335 11 344 178 141 84 80 43 12 2 341 323 316 274 281 279 270 267 269 102 17 356 345
283 269 264 272 295 286 297 302 307 283 285 273 273 262 246 244 245 268 282 308 328 334 349 125 111 95 42 358 342 316 315 308 308 293 293 293 257 249 229 195 216 2 323
276 281 253 261 277 293 313 291 298 288 273 261 245 248 239 236 224 242 253 268 283 297 326 162 206 314 328 306 287 296 301 288 312 312 321 341 40 24 117 298 299 311 292
263 271 274 273 265 280 291 290 311 307 282 280 253 226 242 194 217 217 245 270 264 275 284 283 296 293 289 274 272 266 267 286 320 333 330 343 350 327 288 281 268 288 275
260 263 268 275 267 273 285 286 293 291 285 275 322 275 31 267 209 205 223 262 281 261 283 294 281 270 275 268 261 254 250 254 265 300 292 317 308 292 285 277 194 320 304
262 270 252 260 262 259 273 269 266 279 311 325 310 305 328 27 118 165 219 245 261 271 291 289 282 268 261 257 251 246 244 243 237 300 326 306 305 307 319 359 334 294 290
258 265 256 255 270 271 269 273 274 279 275 275 268 265 260 256 254 271 268 259 265 278 290 289 285 284 285 284 251 241 278 271 232 342 299 287 300 321 318 326 296 286 279
254 268 269 260 259 261 253 274 299 295 263 266 257 251 239 245 244 241 249 254 259 268 272 276 266 269 277 284 277 278 289 323 327 316 287 313 304 314 318 305 303 305 81
343 304 284 265 261 266 249 249 260 280 278 272 255 260 236 236 238 243 246 257 260 256 260 255 264 264 262 263 267 297 330 355 340 319 323 305 302 299 308 299 302 34 61
321 328 319 283 273 275 270 283 263 274 284 295 290 249 226 235 237 238 242 246 246 262 268 241 252 272 279 286 268 267 255 302 279 291 286 282 295 300 298 297 305 331 237
330 304 325 298 287 276 262 266 264 288 280 295 294 216 208 217 233 231 236 237 242 240 256 276 281 276 279 275 275 220 271 265 254 246 258 270 289 276 283 294 328 332 289
337 331 317 326 315 301 289 289 250 257 266 276 271 289 191 217 226 229 216 225 230 237 249 239 262 277 265 240 226 229 242 243 261 262 268 279 273 274 282 287 320 299 300
338 327 316 310 321 316 297 286 281 280 290 281 270 289 201 213 252 281 264 231 224 231 244 236 241 257 266 264 231 205 280 278 268 266 269 285 294 292 291 302 298 305 310
321 300 310 305 310 305 294 297 291 267 268 277 264 280 209 240 257 249 266 296 269 228 237 230 221 242 266 275 228 234 247 267 266 284 292 288 289 299 315 334 316 300 297
314 320 327 319 326 319 299 301 297 293 246 260 277 275 265 259 243 280 272 256 283 246 244 227 225 228 226 229 228 228 239 236 227 218 245 269 280 286 293 280 273 273 283
313 320 317 320 321 323 317 292 287 297 292 277 269 274 255 257 255 253 252 251 260 291 254 244 230 225 221 224 228 244 237 212 212 229 268 256 255 268 276 276 278 283 282
327 328 343 330 339 329 327 321 304 290 296 252 246 261 281 282 259 251 268 273 274 251 278 268 294 251 227 223 220 224 240 239 240 253 271 252 247 256 258 260 267 273 284